Regional Weather Roundup
Issued by NWS

Home | Current Version | Previous Version | Text Only | Print | Product List | Glossary Off
Versions: 1 2 3 4 5 6 7 8 9 10 11 12 13 14 15 16 17 18 19 20 21 22 23 24 25 26 27 28 29 30 31 32 33 34 35 36 37 38 39 40 41 42 43 44 45 46 47 48 49 50

000
ASUS43 KLMK 241010
RWRKY
KENTUCKY REGIONAL WEATHER ROUNDUP
NATIONAL WEATHER SERVICE LOUISVILLE KY
600 AM EDT THU JUL 24 2014

NOTE "FAIR" INDICATES FEW OR NO CLOUDS BELOW 12,000 FEET
WITH NO SIGNIFICANT WEATHER AND/OR OBSTRUCTIONS TO VISIBILITY.

KYZ001>023-026-027-061>063-070>075-241100-
WESTERN AND SOUTH CENTRAL KENTUCKY

CITY           SKY/WX    TMP DP  RH WIND       PRES   REMARKS
PADUCAH        CLEAR     61  54  77 N6        30.02S
HENDERSON      MOCLDY    61  52  72 N5        30.02R
OWENSBORO      MOCLDY    65  58  78 N7        30.01R
HOPKINSVILLE   CLOUDY    69  63  81 NW6       29.99R
BOWLING GREEN  CLOUDY    72  65  78 VRB6      29.97R
GLASGOW        CLOUDY    71  71  99 NW5       29.96R FOG
$$

KYZ024-025-028>034-038-045-046-053-241100-
NORTH CENTRAL KENTUCKY

CITY           SKY/WX    TMP DP  RH WIND       PRES   REMARKS
LOUISVILLE/SDF CLOUDY    71  65  81 N12       29.98R
LOUISVILLE/LOU CLOUDY    70  65  84 N7        29.99R
FORT KNOX      CLOUDY    68  66  93 N6        29.97S
$$

KYZ035>037-039>044-047>052-055>060-089>105-241100-
NORTHEAST KENTUCKY

CITY           SKY/WX    TMP DP  RH WIND       PRES   REMARKS
LEXINGTON      CLOUDY    67  62  84 N12       29.98R
COVINGTON      MOCLDY    64  54  69 NE16      30.01R
FRANKFORT      CLOUDY    66  62  87 N10G18    29.98R
$$

KYZ054-064>069-076>088-106>120-241100-
SOUTHEAST KENTUCKY

CITY           SKY/WX    TMP DP  RH WIND       PRES   REMARKS
JACKSON        FOG       68  66  93 CALM      29.97R VSB 1/4
LONDON         CLOUDY    69  67  93 S3        29.97R FOG
SOMERSET       CLOUDY    70  70 100 CALM      29.97S FOG
MIDDLESBORO    CLOUDY    67  67 100 CALM      29.97S
MONTICELLO     CLOUDY    70  70 100 CALM      29.98S FOG
$$



USA.gov is the U.S. government's official web portal to all federal, state and local government web resources and services.